AirNav   Everest Fuels
 
 2065 users online  

2I3 Rough River State Park Airport
Falls of Rough, Kentucky, USA

GOING TO FALLS OF ROUGH?


FAA INFORMATION EFFECTIVE 04 NOVEMBER 2021

Location

FAA Identifier: 2I3
Lat/Long: 37-36-35.3000N 086-30-25.8000W
37-36.588333N 086-30.430000W
37.6098056,-86.5071667
(estimated)
Elevation: 577 ft. / 175.9 m (surveyed)
Variation: 01W (1985)
From city: 3 miles NE of FALLS-OF-ROUGH, KY
Time zone: UTC -5 (UTC -6 during Standard Time)
Zip code: 40119

Airport Operations

Airport use: Open to the public
Activation date: 05/1963
Control tower: no
ARTCC: INDIANAPOLIS CENTER
FSS: LOUISVILLE FLIGHT SERVICE STATION
NOTAMs facility: LOU (NOTAM-D service available)
Attendance: UNATNDD
Wind indicator: lighted
Segmented circle: yes
Lights: ACTVT MIRL RY 2/20; REIL RY 2 & 20 - CTAF. PAPI RY 2 & 20 OPER CONTINUOUSLY.
Beacon: white-green (lighted land airport)
Operates sunset to sunrise.

Airport Communications

CTAF/UNICOM: 122.8
WX AWOS-3PT at JQD (19 nm SW): 132.1 (270-298-7936)

Nearby radio navigation aids

VOR radial/distance  VOR name  Freq  Var
MYSr217/(21.1)MYSTIC VOR108.2001W
FTKr236/31.0FORT KNOX VOR/DME109.6001W
OWBr108/32.3OWENSBORO VOR/DME108.6004W
EWOr267/39.5NEW HOPE VOR/DME110.8001E

 
NDB name  Hdg/Dist  Freq  Var  ID
GODMAN233/32.739603WGOI --. --- ..

Airport Services

Parking: tiedowns
Airframe service: NONE
Powerplant service: NONE
Bottled oxygen: NONE
Bulk oxygen: NONE

Runway Information

Runway 2/20

Dimensions: 3200 x 75 ft. / 975 x 23 m
Surface: asphalt, in good condition
Weight bearing capacity: 
Single wheel: 8.0
Runway edge lights: medium intensity
RUNWAY 2  RUNWAY 20
Latitude: 37-36.336833N37-36.841000N
Longitude: 086-30.527167W086-30.332667W
Traffic pattern: leftleft
Markings: basic, in good conditionbasic, in good condition
Visual slope indicator: 2-light PAPI on left (4.00 degrees glide path)4-light PAPI on left (5.00 degrees glide path)
Runway end identifier lights: yesyes
Obstructions: none44 ft. trees, 878 ft. from runway, 144 ft. left of centerline, 15:1 slope to clear

Airport Ownership and Management from official FAA records

Ownership: Publicly-owned
Owner: KY DEPT OF PARKS
2 HUDSON HOLLOW UNIT 1
FRANKFORT, KY 40601
Phone (502) 892-3367
Manager: MICHAEL RICKS, PARK MANAGER
450 LODGE ROAD
FALLS OF ROUGH, KY 40119
Phone 270-257-2311

Airport Operational Statistics

Aircraft operations: avg 25/day *
78% transient general aviation
13% local general aviation
7% military
2% air taxi
* for 12-month period ending 04 December 2019

Additional Remarks

TRANSPORTATION TO PARK LODGE AVAIL 270-257-2311.
FOR CD CTC INDIANAPOLIS ARTCC AT 317-247-2411.

Instrument Procedures

There are no published instrument procedures at 2I3.

Some nearby airports with instrument procedures:

I93 - Breckinridge County Airport (11 nm N)
M20 - Leitchfield-Grayson County Airport (17 nm SE)
KJQD - Ohio County Airport (19 nm SW)
KTEL - Perry County Municipal Airport (26 nm N)
KY8 - Hancock County Airport/Ron Lewis Field (26 nm NW)
 
Loc | Ops | Rwys | IFR | FBO | Links
Com | Nav | Svcs | Stats | Notes
Area around 2I3 (Rough River State Park Airport)
 
Road maps at: MapQuest Bing Google
 
Aerial photo
WARNING: Photo may not be current or correct
Aerial photo of 2I3 (Rough River State Park Airport)
Taken in December 2006

Do you have a better or more recent aerial photo of Rough River State Park Airport that you would like to share? If so, please send us your photo.

 
Sectional chart

 
Airport distance calculator
Flying to Rough River State Park Airport? Find the distance to fly.

From to 2I3

Sunrise and sunset
Times for 29-Nov-2021
 Local
(UTC-6)
 Zulu
(UTC)
Morning civil twilight06:1312:13
Sunrise06:4112:41
Sunset16:2722:27
Evening civil twilight16:5622:56

Current date and time
Zulu (UTC)  29-Nov-2021 18:56:15
Local (UTC-6)  29-Nov-2021 12:56:15
 
METAR
KKY8 
26nm NW 
291835Z AUTO 17008KT 140V200 10SM CLR 08/M07 A3015 RMK A01
KFTK 
30nm NE 
291826Z AUTO 17006KT 10SM CLR 07/M11 A3013 RMK AO2 SLP211
KEKX 
31nm E 
291835Z AUTO 19006KT 10SM CLR 07/M09 A3015 RMK AO2 T00661093
KOWB 
32nm W 
291756Z 18008KT 10SM CLR 07/M06 A3017 RMK AO2 SLP221 T00721061 10072 21050 58021
KM21 
39nm SW 
291835Z AUTO 18007KT 10SM CLR 09/M10 A3016 RMK AO2 T00871100
KBWG 
39nm S 
291753Z AUTO 21004KT 10SM CLR 07/M09 A3020 RMK AO2 SLP230 T00721089 10072 21039 58017
KGLW 
44nm SE 
291835Z AUTO 23004KT 10SM CLR 07/M09 A3018 RMK AO2 T00701088
KHNB 
44nm NW 
291756Z AUTO 19009KT 10SM CLR 06/M08 A3016 RMK AO2 SLP218 T00611078 10067 21067 58020
K2I0 
45nm W 
291835Z AUTO 17006KT 10SM SCT110 10/M09 A3016 RMK AO2 T01031090
KI19 
46nm NW 
291815Z AUTO 24007KT 10SM CLR 05/M07 A3011 RMK AO2 T00501075
TAF
KFTK 
30nm NE 
291200Z 2912/3018 VRB06KT 9999 FEW200 QNH3012INS BECMG 2918/2919 20006KT 9999 SCT120 BKN200 QNH3001INS BECMG 3002/3003 21010KT 9999 FEW100 SCT200 WS020/23035KT QNH2993INS BECMG 3010/3011 24008KT 9999 SCT025 BKN080 BKN200 QNH2994INS BECMG 3015/3016 26009KT 9999 FEW025 SCT100 SCT200 QNH3000INS TX07/2920Z TNM05/2912Z
KOWB 
32nm W 
291723Z 2918/3018 19009KT P6SM SCT250 FM300300 19009KT P6SM FEW200 WS020/23040KT FM300800 22008KT P6SM SKC WS020/27035KT FM300900 22007KT P6SM SKC FM301700 27005KT P6SM FEW250
NOTAMs
Click for the latest NOTAMs
NOTAMs are issued by the DoD/FAA and will open in a separate window not controlled by AirNav.

 

 
 

Would you like to see your business listed on this page?

 If your business provides an interesting product or service to pilots, flight crews, aircraft, or users of the Rough River State Park Airport, you should consider listing it here.  To start the listing process, click on the button below
 
Add a business
 

Other Pages about Rough River State Park Airport

Update a link
 
Copyright © AirNav, LLC. All rights reserved. Privacy Policy  Contact